TimeEDT,TemperatureF,Dew PointF,Humidity,Sea Level PressureIn,VisibilityMPH,Wind Direction,Wind SpeedMPH,Gust SpeedMPH,PrecipitationIn,Events,Conditions,WindDirDegrees,DateUTC
12:53 AM,39.9,28.0,63,29.93,10.0,WSW,5.8,-,N/A,,Clear,250,2012-11-02 04:53:00
1:53 AM,43.0,25.0,49,29.94,10.0,West,4.6,-,N/A,,Clear,270,2012-11-02 05:53:00
2:53 AM,39.9,27.0,60,29.94,10.0,SW,3.5,-,N/A,,Clear,220,2012-11-02 06:53:00
3:53 AM,39.9,25.0,55,29.94,10.0,WSW,4.6,-,N/A,,Clear,250,2012-11-02 07:53:00
4:53 AM,37.0,26.1,65,29.93,10.0,SW,5.8,-,N/A,,Clear,230,2012-11-02 08:53:00
5:53 AM,37.9,25.0,60,29.94,10.0,WSW,4.6,-,N/A,,Clear,240,2012-11-02 09:53:00
6:53 AM,37.9,25.0,60,29.95,10.0,WSW,4.6,-,N/A,,Clear,240,2012-11-02 10:53:00
7:53 AM,37.0,26.1,65,29.95,10.0,SW,5.8,-,N/A,,Partly Cloudy,230,2012-11-02 11:53:00
8:53 AM,41.0,28.9,62,29.96,10.0,SW,5.8,-,N/A,,Clear,220,2012-11-02 12:53:00
9:53 AM,48.9,30.0,48,29.95,10.0,WSW,11.5,-,N/A,,Clear,240,2012-11-02 13:53:00
10:53 AM,55.9,30.9,39,29.93,10.0,SW,10.4,-,N/A,,Clear,230,2012-11-02 14:53:00
11:53 AM,63.0,33.1,33,29.90,10.0,SW,16.1,-,N/A,,Clear,220,2012-11-02 15:53:00
12:53 PM,64.9,34.0,32,29.88,10.0,WSW,13.8,20.7,N/A,,Clear,240,2012-11-02 16:53:00
1:53 PM,69.1,36.0,30,29.85,10.0,West,10.4,23.0,N/A,,Clear,260,2012-11-02 17:53:00
2:53 PM,70.0,37.0,30,29.84,10.0,West,10.4,19.6,N/A,,Clear,260,2012-11-02 18:53:00
3:53 PM,69.1,37.0,31,29.85,10.0,WNW,16.1,23.0,N/A,,Mostly Cloudy,290,2012-11-02 19:53:00
4:53 PM,68.0,37.9,33,29.87,10.0,NNW,10.4,-,N/A,,Partly Cloudy,330,2012-11-02 20:53:00
5:53 PM,66.0,39.0,37,29.88,10.0,North,4.6,-,N/A,,Clear,350,2012-11-02 21:53:00
6:53 PM,62.1,39.9,44,29.92,10.0,NNW,4.6,-,N/A,,Clear,340,2012-11-02 22:53:00
7:53 PM,60.1,33.1,36,29.95,10.0,North,6.9,-,N/A,,Clear,10,2012-11-02 23:53:00
8:53 PM,55.0,33.1,43,29.97,10.0,Calm,Calm,-,N/A,,Clear,0,2012-11-03 00:53:00
9:53 PM,48.9,35.1,59,29.99,10.0,ENE,3.5,-,N/A,,Clear,60,2012-11-03 01:53:00
10:53 PM,46.9,33.1,59,30.00,10.0,Calm,Calm,-,N/A,,Clear,0,2012-11-03 02:53:00
11:53 PM,45.0,33.1,63,30.01,10.0,Calm,Calm,-,N/A,,Clear,0,2012-11-03 03:53:00